EHI
0 0 0 0 0 0 0 0 0 0 0 1 2 5 6 8 15 26 35 37 37 38 39 39 42 45 49 54 58 56 45 28 19 18 17 13 11 9 7 8 9 8 6 5
0 0 0 0 0 0 0 0 0 0 0 1 3 4 6 9 14 20 27 30 31 34 36 35 32 32 35 41 45 42 37 26 17 15 14 12 11 9 8 11 12 8 6 6
0 0 0 0 0 0 0 0 0 0 1 2 2 5 8 11 12 13 16 19 21 24 29 26 19 17 20 26 29 31 37 33 21 16 14 12 11 8 9 14 16 10 6 5
0 0 0 0 0 0 0 0 0 0 1 1 1 4 9 10 10 11 12 13 15 17 19 17 13 14 18 21 25 39 53 50 36 26 19 15 12 9 10 16 18 14 8 5
0 0 0 0 0 0 0 0 0 0 0 0 0 3 5 6 8 11 14 14 14 13 13 12 13 18 22 23 32 52 68 65 50 34 25 18 12 9 10 13 14 13 10 6
0 0 0 0 0 0 0 0 0 0 0 0 0 1 3 3 4 8 13 15 13 10 9 9 12 19 24 28 38 57 73 72 55 37 25 19 14 10 8 7 7 8 7 5
0 0 0 0 0 0 0 0 0 0 0 0 0 1 2 1 1 4 8 11 10 8 7 9 11 17 25 33 43 58 71 69 52 33 22 17 13 8 5 3 2 3 3 2
0 0 0 0 0 0 0 0 0 0 0 0 0 0 0 0 0 1 3 5 5 5 6 7 9 14 22 31 42 55 62 56 39 25 18 15 10 6 3 2 1 0 0 0
0 0 0 0 0 0 0 0 0 0 0 0 0 0 0 0 0 0 0 1 1 1 2 4 6 10 17 27 36 43 44 38 26 16 12 10 8 5 2 1 0 0 0 0
0 0 0 0 0 0 0 0 0 0 0 0 0 0 0 0 0 0 0 0 0 0 0 1 3 8 16 25 30 29 28 24 18 11 7 6 6 6 4 1 0 0 0 0
0 0 0 0 0 0 0 0 0 0 0 0 0 0 0 1 0 0 0 0 0 0 0 1 5 12 18 22 23 21 18 15 11 7 5 5 5 4 3 1 0 0 0 0
0 0 0 0 0 0 0 0 0 0 0 0 0 0 0 0 0 0 0 0 0 0 0 2 8 15 16 14 14 13 11 8 6 5 4 3 3 2 1 0 0 0 0 0
0 0 0 0 0 0 0 0 0 0 0 0 0 0 0 0 0 0 0 0 1 2 3 8 15 18 14 10 8 7 5 4 3 3 2 1 1 0 0 0 0 0 0 0
0 0 0 0 0 0 0 0 0 0 0 0 0 0 0 0 0 0 0 0 1 4 8 15 22 21 15 11 8 6 4 3 3 2 1 0 0 0 0 0 0 0 0 0
0 0 0 0 0 0 0 0 0 0 0 0 0 0 0 0 0 0 0 1 4 8 12 17 23 22 17 12 9 6 3 2 1 1 0 0 0 0 0 0 0 0 0 0
0 0 0 0 0 0 0 0 0 0 0 0 0 0 0 0 0 0 1 3 6 9 11 13 18 21 19 14 10 5 2 1 0 0 0 0 0 0 0 0 0 0 0 0
0 0 0 0 0 0 0 0 0 0 0 0 0 0 0 0 1 2 2 3 6 6 6 7 12 19 20 15 10 6 2 0 0 0 0 0 0 0 0 0 0 0 0 0
1 0 0 0 0 0 0 0 0 0 0 0 0 0 0 0 1 2 2 3 3 2 2 3 7 12 13 11 8 5 2 0 0 0 0 0 0 0 0 0 0 1 2 1
2 2 1 0 0 0 0 0 0 0 1 1 1 0 0 0 1 1 1 1 1 1 1 2 3 4 5 4 4 4 2 0 0 0 0 0 0 0 0 0 1 2 3 2
3 3 1 0 0 0 1 1 1 1 3 4 2 2 2 1 0 0 0 0 1 2 4 5 4 7 10 9 9 8 5 3 1 0 0 1 1 1 1 1 3 4 3 1
1 1 1 0 0 2 4 6 6 8 10 8 5 4 4 4 3 3 3 6 8 8 9 10 13 20 25 25 24 21 14 8 5 2 1 3 4 2 2 3 6 7 4 1
1 1 2 2 2 4 7 8 9 13 14 10 6 4 5 5 7 8 10 13 15 14 13 17 27 38 41 38 36 31 23 16 10 6 5 7 6 4 3 4 6 7 5 2
1 2 3 4 5 5 5 4 5 7 8 6 5 4 5 7 10 13 16 20 20 18 19 26 38 48 49 44 39 36 30 23 17 13 12 11 9 7 5 4 3 3 2 1
1 1 2 4 5 4 2 0 0 1 1 2 3 5 8 10 14 19 24 28 27 24 27 35 44 49 50 46 40 38 34 28 23 19 16 12 9 7 6 4 1 0 2 3
1 1 2 4 5 3 1 0 0 0 0 1 2 4 8 11 16 22 29 32 31 32 36 41 46 48 46 42 38 35 33 30 24 18 12 7 4 3 4 3 1 1 3 4
3 4 5 7 7 3 0 0 0 0 0 0 0 1 4 9 14 19 25 29 31 36 41 44 46 46 42 37 32 31 30 29 23 13 5 2 1 1 2 1 0 1 2 2
Wind_Speed
13 10 10 10 9 10 9 3 2 3 6 4 4 10 10 8 5 6 6 7 10 10 10 9 9 10 9 8 7 6 6 4 2 2 1 1 1 0 1 2 4 2 2 3
12 10 11 10 10 10 8 7 4 5 6 3 4 6 4 4 4 6 8 7 9 11 10 9 8 8 9 8 7 6 5 5 3 2 1 0 1 1 0 1 2 2 1 1
12 7 7 8 9 9 6 6 7 5 2 1 1 2 2 5 6 6 8 9 10 12 12 11 9 9 9 9 8 7 6 5 3 2 1 0 0 1 1 0 1 1 1 1
10 7 6 8 8 9 5 6 7 7 2 1 3 2 3 5 6 8 10 11 11 11 12 12 11 10 9 9 9 7 6 5 3 2 1 2 2 2 1 0 1 1 1 2
9 8 8 8 6 7 6 6 7 9 5 4 4 2 4 7 8 10 10 10 11 12 12 11 12 10 10 10 9 8 7 5 4 2 1 2 2 2 2 3 2 1 3 3
11 10 8 6 4 4 6 5 7 11 7 5 6 3 5 7 10 11 12 12 12 12 12 12 11 10 9 8 8 8 8 6 4 3 2 2 2 2 3 4 3 3 2 2
7 10 8 6 7 4 6 5 2 1 2 7 7 2 6 9 11 11 13 14 13 13 11 11 10 10 9 8 8 7 8 7 5 4 2 1 1 2 4 4 3 2 3 2
7 3 5 9 8 6 8 7 4 5 3 2 2 4 8 10 10 10 10 12 13 12 11 11 10 9 8 8 7 7 8 6 5 4 3 1 1 3 2 3 3 4 3 3
4 4 10 11 8 7 7 7 8 8 5 2 1 7 12 10 11 10 11 12 13 13 13 12 11 10 9 7 7 6 7 5 4 2 3 2 3 2 2 3 3 3 3 4
7 7 5 7 7 8 7 9 6 6 6 3 3 2 6 10 11 11 11 11 12 12 12 12 11 9 8 7 7 6 6 5 3 2 3 3 2 2 2 3 3 3 4 4
6 7 7 4 6 9 7 7 5 6 7 5 2 2 8 10 10 11 12 12 11 12 11 11 10 9 9 8 8 7 6 5 4 4 3 1 1 2 2 3 4 4 3 4
5 6 7 5 10 15 10 8 6 4 5 6 3 3 6 6 8 9 10 11 11 10 10 11 11 10 9 8 8 8 7 6 6 5 3 3 3 3 3 4 3 3 4 4
4 5 7 4 11 13 13 13 9 6 6 6 5 2 3 3 4 6 7 8 8 8 9 10 11 10 9 7 6 6 6 5 5 5 4 4 4 3 3 4 4 4 4 4
6 7 9 7 6 9 12 15 12 8 6 5 4 3 6 5 5 6 6 7 8 8 8 9 10 9 8 7 6 5 4 4 4 3 3 3 3 3 3 3 4 4 4 5
8 9 10 9 8 10 11 13 11 9 8 8 6 6 5 4 3 4 5 6 7 9 9 9 9 9 8 7 6 5 5 4 3 2 3 3 3 3 3 4 4 4 5 6
6 8 12 13 13 11 13 13 11 10 9 9 7 4 3 6 5 4 4 5 6 8 9 10 10 9 9 8 7 6 5 5 5 4 4 3 3 3 4 4 5 5 5 5
7 8 11 13 14 12 12 11 10 8 7 7 5 1 4 4 4 4 4 4 5 7 8 9 10 9 8 8 7 6 6 5 5 5 5 4 4 4 4 5 5 4 5 5
9 8 7 12 13 15 9 7 8 7 6 5 3 3 3 4 4 5 6 6 5 6 7 8 9 10 10 9 8 7 7 7 6 6 6 5 5 5 4 4 5 5 4 5
7 7 9 11 13 13 8 5 6 7 5 4 1 3 2 4 2 5 9 9 7 6 6 6 8 10 10 10 10 9 7 7 7 7 6 5 4 4 4 4 5 5 4 5
6 6 9 11 13 12 4 4 4 4 3 8 6 4 2 2 1 2 7 8 7 6 6 7 8 8 9 9 9 9 8 7 7 6 5 4 4 4 5 5 5 5 5 6
7 9 12 12 11 5 5 3 4 1 2 8 7 5 4 3 2 3 4 5 6 6 7 7 7 7 8 8 8 8 7 7 6 5 4 4 4 5 6 6 6 5 6 7
9 9 10 7 6 3 10 8 6 3 6 9 9 9 7 6 4 2 1 4 5 5 6 7 6 6 7 8 8 8 7 6 5 4 4 5 4 6 6 5 5 6 6 8
6 6 4 0 3 5 7 5 2 2 4 7 9 9 8 8 7 6 4 3 2 3 4 5 5 5 6 6 7 7 6 4 4 4 5 4 5 5 6 6 7 7 7 8
3 5 4 4 7 6 6 6 3 3 5 8 10 11 11 10 10 9 7 5 3 2 1 3 5 5 5 5 5 5 4 4 4 5 5 5 6 7 7 7 8 8 7 6
5 3 1 5 7 7 6 6 7 8 9 10 12 13 13 13 13 12 10 9 6 5 4 2 2 3 4 5 5 5 4 4 4 5 5 6 8 8 8 8 8 9 8 7
6 5 3 4 5 5 5 6 8 10 11 12 12 13 14 14 13 13 11 10 9 7 6 5 3 1 1 3 4 4 3 4 4 5 6 7 7 7 7 7 7 12 13 13
Wind_Direction
261 254 280 295 307 308 319 345 338 302 275 278 132 143 179 199 203 155 143 138 137 134 129 128 130 128 127 127 126 127 127 133 148 132 139 144 129 97 118 132 115 97 46 27
260 263 272 290 304 307 333 322 303 269 259 297 107 118 159 175 176 156 145 149 143 136 135 140 143 141 139 139 136 140 149 155 166 122 86 98 26 298 214 81 123 120 78 353
278 280 287 292 308 313 317 306 298 281 280 26 81 124 166 189 163 161 161 160 156 154 154 158 157 154 151 152 159 165 160 152 155 126 193 301 51 295 332 70 139 106 44 320
295 305 306 301 300 300 300 296 302 308 315 270 203 191 199 216 192 184 180 170 163 162 160 163 164 167 166 167 172 159 153 152 152 164 252 291 278 291 312 330 54 58 312 277
280 279 281 277 289 304 313 329 337 348 347 303 245 198 181 192 211 198 184 177 168 168 169 172 172 173 177 177 172 162 158 158 164 184 228 280 311 335 358 10 355 328 277 258
297 297 289 300 290 290 303 322 11 17 359 305 254 222 158 178 197 188 182 182 175 174 173 172 172 172 180 180 174 166 158 158 166 195 225 237 306 336 328 319 302 292 288 279
271 282 298 292 275 267 287 300 2 46 254 247 237 217 138 166 177 178 176 176 177 177 173 171 176 176 180 183 180 166 152 160 179 194 207 222 291 296 269 265 292 315 311 323
289 304 276 265 263 265 263 271 277 285 259 212 211 138 135 142 148 158 166 170 174 175 172 174 175 177 184 184 173 156 150 164 179 187 174 174 252 278 307 10 352 327 316 331
293 256 220 236 260 277 286 292 296 298 308 335 245 117 119 135 144 155 165 172 178 180 179 179 179 182 180 168 156 152 145 155 171 179 152 196 221 256 313 328 289 292 331 319
274 288 246 226 237 235 270 300 307 310 314 337 48 91 156 166 163 167 174 178 179 181 182 180 174 171 152 144 139 137 136 147 164 199 209 221 191 229 253 272 301 311 300 296
283 290 285 271 291 292 243 259 289 311 321 337 11 307 162 171 169 174 179 180 183 186 182 171 156 145 139 143 142 143 149 161 180 206 200 238 256 270 276 268 269 275 281 291
285 288 300 348 352 332 303 275 266 275 303 304 311 104 113 155 168 170 175 176 182 181 172 158 148 141 148 156 159 160 166 176 185 193 185 200 223 245 261 273 279 284 281 278
320 301 291 333 8 342 314 298 280 266 280 293 313 109 163 217 170 158 167 165 164 164 162 151 144 149 158 162 164 166 176 185 189 185 183 199 214 233 247 264 272 277 279 279
293 276 284 284 216 215 248 268 275 268 268 285 306 274 217 212 185 163 160 162 162 158 153 151 146 152 159 160 158 169 186 190 190 186 197 208 218 237 253 263 268 271 275 276
298 275 281 285 257 233 245 254 260 261 268 272 266 255 224 172 158 152 159 162 160 157 160 159 158 158 160 162 164 179 187 179 181 196 226 229 227 236 247 255 260 265 269 277
310 296 298 291 282 277 275 276 272 269 269 268 264 267 120 127 132 137 147 161 162 165 171 168 165 163 166 171 176 183 183 177 175 199 231 237 234 247 252 256 255 259 263 271
248 260 279 284 291 292 281 277 274 269 269 272 267 187 134 137 134 141 151 170 176 176 178 173 170 169 168 174 175 178 179 181 186 197 221 233 233 245 253 266 274 276 279 281
239 257 267 274 278 274 281 291 289 267 245 248 231 163 150 140 143 157 163 173 182 186 182 172 171 168 170 172 173 178 187 187 194 203 216 224 230 244 251 257 264 267 273 276
254 246 264 274 275 272 278 320 337 325 321 341 243 138 120 117 190 190 166 168 178 184 168 163 173 176 172 172 174 176 193 195 201 210 213 222 230 244 254 261 264 268 270 272
273 235 248 258 268 279 325 20 352 329 334 1 15 33 28 142 281 81 144 164 174 173 159 164 177 171 164 171 172 176 192 202 210 215 214 220 225 239 252 259 261 265 266 269
265 252 249 258 269 286 19 46 39 358 32 340 353 16 359 18 29 121 172 162 156 160 162 166 174 169 168 168 167 180 197 206 209 212 212 218 224 233 242 245 245 250 258 267
248 249 250 258 275 310 9 23 52 16 346 335 357 3 2 356 341 344 93 121 145 161 173 175 173 169 164 166 171 187 203 206 205 210 220 227 229 247 258 250 251 251 256 264
258 287 298 140 117 108 74 69 40 360 359 350 0 352 353 351 360 12 40 72 118 158 169 169 168 165 162 168 177 195 200 198 208 218 228 237 243 245 253 258 260 256 251 255
339 328 323 73 100 110 114 126 124 59 31 22 16 14 11 13 15 19 30 40 48 47 141 157 158 168 172 174 183 191 186 190 208 224 233 241 246 247 245 242 251 257 259 260
283 261 342 90 106 107 76 65 71 60 48 40 35 29 26 26 24 25 28 25 29 36 30 52 133 171 178 175 181 184 184 196 217 230 239 248 253 253 250 245 243 247 249 251
359 11 11 90 100 98 87 61 60 62 57 49 42 39 36 32 27 28 28 27 24 24 25 26 22 1 216 182 182 184 187 201 227 242 247 254 258 258 258 255 254 241 237 242